Flag for United Kingdom Weather past 2 weeks in Darlington, England, United Kingdom

Now
66 °F

Passing clouds.


Feels Like: 66 °F
Forecast: 52 / 68 °F
Wind: 17 mph from West

Location: Tees-Side

Current Time: Aug 1, 2015 at 6:08:43 PM

Latest Report: Aug 1, 2015 at 5:20 PM


Visibility: N/A

Pressure: 29.89 "Hg

Humidity: 46%

Dew point: 45 °F

Location of DarlingtonLocation

Historic Weather in Darlington — Graph

°F

Darlington temperature yesterday

Maximum temperature yesterday: 66 °F (at 3:20 PM)
Minimum temperature yesterday: 46 °F (at 5:50 AM)
Average temperature yesterday: 59 °F

Past Weeks' High & Low Weather Summary

 TemperatureHumidityPressure
High68 °F (Jul 17, 4:20 PM)94% (Jul 19, 6:50 AM)30.09 "Hg (Jul 19, 6:50 AM)
Low43 °F (Jul 26, 5:50 AM)39% (Jul 23, 11:20 AM)29.36 "Hg (Jul 27, 5:50 AM)
Average59 °F71%29.81 "Hg
* Reported Jul 17 4:20 PM — Aug 1 4:50 PM, Darlington, Weather by CustomWeather, © 2015

Note: Actual official high and low records may vary slightly from our data, if they occured in-between our weather recording intervals... More about our weather records

Advertising

Darlington weather history for previous 24 hours

 ConditionsComfort  
Time TempWeatherWind HumidityBarometerVisibility
4:50 PM
Sat, Aug 1
66 °FPassing clouds.20 mph46%29.89 "HgN/A
4:20 PM66 °FPassing clouds.22 mph46%29.89 "HgN/A
3:50 PM64 °FPassing clouds.14 mph56%29.89 "HgN/A
3:20 PM63 °FPassing clouds.14 mph64%29.89 "HgN/A
2:50 PM63 °FPassing clouds.15 mph56%29.89 "HgN/A
2:20 PM64 °FPassing clouds.16 mph52%29.89 "HgN/A
1:50 PM63 °FPartly sunny.17 mph52%29.89 "HgN/A
1:20 PM64 °FScattered showers. Partly sunny.21 mph49%29.89 "HgN/A
12:50 PM64 °FScattered clouds.18 mph49%29.89 "HgN/A
12:20 PM66 °FPassing clouds.21 mph46%29.89 "HgN/A
11:50 AM63 °FPassing clouds.15 mph45%29.89 "HgN/A
11:20 AM63 °FScattered clouds.18 mph52%29.89 "HgN/A
10:50 AM63 °FScattered clouds.20 mph52%29.89 "HgN/A
10:20 AM61 °FScattered clouds.13 mph68%29.89 "HgN/A
9:50 AM59 °FSprinkles. Partly sunny.15 mph77%29.89 "Hg6 mi
9:20 AM57 °FPassing clouds.14 mph82%29.89 "HgN/A
8:50 AM57 °FPassing clouds.10 mph82%29.89 "HgN/A
8:20 AM55 °FPassing clouds.14 mph88%29.86 "HgN/A
7:50 AM54 °FScattered clouds.9 mph88%29.89 "HgN/A
7:20 AM54 °FScattered clouds.8 mph88%29.89 "HgN/A
6:50 AM52 °FPassing clouds.8 mph94%29.86 "HgN/A
6:20 AM52 °FScattered clouds.10 mph88%29.86 "HgN/A
5:50 AM52 °FPassing clouds.8 mph88%29.86 "HgN/A
9:50 PM
Fri, Jul 31
57 °FScattered clouds.8 mph77%29.92 "HgN/A
9:20 PM59 °FPassing clouds.6 mph68%29.92 "HgN/A
8:50 PM59 °FPassing clouds.5 mph68%29.92 "HgN/A
8:20 PM61 °FSunny.5 mph63%29.92 "Hg10 mi
7:50 PM61 °FSunny.6 mph59%29.95 "Hg10 mi
7:20 PM63 °FPassing clouds.8 mph56%29.95 "HgN/A
6:50 PM63 °FPassing clouds.9 mph56%29.95 "HgN/A
6:20 PM63 °FPassing clouds.12 mph56%29.95 "HgN/A
Weather by CustomWeather, © 2015

See weather overviewHow to use our weather pages